AMAZONAS 3

Last updated on Wed May 14 2025 00:02:43 GMT+0000 (Coordinated Universal Time)

1 39078U 13006A 25132.79666378 -.00000266 00000+0 00000+0 0 9995 2 39078 0.0498 126.3706 0002168 301.0704 29.1804 1.00271863 40902
UTC large
Height (km)
Speed (km/s)
/
Latitude / Longitude
Inclination (degrees)
Orbital Period (minutes)
Azimuth
Elevation
Range (km)
Doppler Factor

Next 0 passes for location: London (51.5072 / 0.1276)

Sorry there are no passes over London.